Weather History for Andrews, NC

Change the Weather History Date:

Friday, February 10, 2012

  Actual Average (KTYS) Record (KTYS)
Temperature  
Mean Temperature 40 °F 41 °F  
Max Temperature 50 °F 51 °F 73 °F (1932)
Min Temperature 30 °F 31 °F -3 °F (1899)
Degree Days  
Heating Degree Days 25 24  
Month to date heating degree days 248  
Since 1 July heating degree days 2510  
Cooling Degree Days 0 0  
Month to date cooling degree days 0  
Year to date cooling degree days 0  
Moisture  
Dew Point 32 °F    
Average Humidity 82    
Maximum Humidity 100    
Minimum Humidity 50    
Precipitation  
Precipitation 0.00 in 0.14 in 2.70 in (1994)
Month to date precipitation 1.51  
Year to date precipitation 5.83  
Snow  
Snow 0.00 in 0.10 in - ()
Month to date snowfall 0.7  
Since 1 July snowfall 4.2  
Snow Depth -    
Sea Level Pressure  
Sea Level Pressure 30.08 in    
Wind  
Wind Speed 1 mph (WSW)    
Max Wind Speed 10 mph    
Max Gust Speed -    
Visibility 8 miles    
Events      
T = Trace of Precipitation, MM = Missing Value Source: NWS Daily Summary

Daily Weather History Graph

Daily Weather History Graph

Search for Another Location

Airport:

Trip Planner

Search our weather history database for the weather conditions in past years. The results will help you decide how hot, cold, wet, or windy it might be!

Date:

Astronomy

Feb. 10, 2012 Rise Set
Actual Time 7:27 AM EST 6:12 PM EST
Civil Twilight 7:01 AM EST 6:38 PM EST
Nautical Twilight 6:31 AM EST 7:08 PM EST
Astronomical Twilight 6:01 AM EST 7:38 PM EST
Moon 9:38 PM EST (2/10) 8:44 AM EST (2/10)
Length of Visible Light 11h 37m
Length of Day
10h 45m
Waning Gibbous, 90% of the Moon is Illuminated
Feb 10
Waning Gibbous
Feb 14
Last Quarter
Feb 21
New
Feb 29
First Quarter
Mar 8
Full

Hourly Weather History & Observations

Time (EST) Temp. Windchill Dew Point Humidity Pressure Visibility Wind Dir Wind Speed Gust Speed Precip Events Conditions
12:15 AM 32.0 °F - 32.0 °F 100% 30.18 in 7.0 mi Calm Calm - N/A   Clear
12:35 AM 32.0 °F - 30.2 °F 93% 30.17 in 10.0 mi Calm Calm - N/A   Clear
12:55 AM 32.0 °F - 32.0 °F 100% 30.17 in 10.0 mi Calm Calm - N/A   Clear
1:15 AM 32.0 °F - 32.0 °F 100% 30.17 in 10.0 mi Calm Calm - N/A   Clear
1:35 AM 32.0 °F - 30.2 °F 93% 30.17 in 10.0 mi Calm Calm - N/A   Clear
1:55 AM 32.0 °F - 30.2 °F 93% 30.17 in 10.0 mi Calm Calm - N/A   Clear
2:15 AM 32.0 °F - 30.2 °F 93% 30.16 in 10.0 mi Calm Calm - N/A   Clear
2:35 AM 32.0 °F - 30.2 °F 93% 30.14 in 10.0 mi Calm Calm - N/A   Clear
2:55 AM 32.0 °F - 32.0 °F 100% 30.15 in 7.0 mi Calm Calm - N/A   Clear
3:15 AM 30.2 °F - 30.2 °F 100% 30.14 in 7.0 mi Calm Calm - N/A   Clear
3:35 AM 32.0 °F - 30.2 °F 93% 30.14 in 7.0 mi Calm Calm - N/A   Clear
3:55 AM 30.2 °F - 30.2 °F 100% 30.13 in 7.0 mi Calm Calm - N/A   Clear
4:15 AM 30.2 °F - 30.2 °F 100% 30.13 in 7.0 mi Calm Calm - N/A   Clear
4:35 AM 32.0 °F - 30.2 °F 93% 30.13 in 5.0 mi Calm Calm - N/A   Clear
4:55 AM 32.0 °F - 30.2 °F 93% 30.11 in 7.0 mi Calm Calm - N/A   Clear
5:15 AM 30.2 °F - 30.2 °F 100% 30.12 in 7.0 mi Calm Calm - N/A   Clear
5:35 AM 30.2 °F - 30.2 °F 100% 30.12 in 7.0 mi Calm Calm - N/A   Clear
5:55 AM 32.0 °F - 30.2 °F 93% 30.12 in 7.0 mi Calm Calm - N/A   Clear
6:15 AM 30.2 °F - 30.2 °F 100% 30.12 in 7.0 mi Calm Calm - N/A   Clear
6:35 AM 30.2 °F - 30.2 °F 100% 30.13 in 7.0 mi Calm Calm - N/A   Clear
6:55 AM 30.2 °F - 30.2 °F 100% 30.13 in 5.0 mi Calm Calm - N/A   Clear
7:15 AM 30.2 °F - 30.2 °F 100% 30.13 in 7.0 mi Calm Calm - N/A   Clear
7:35 AM 30.2 °F - 30.2 °F 100% 30.14 in 7.0 mi Calm Calm - N/A   Clear
7:55 AM 30.2 °F - 30.2 °F 100% 30.14 in 5.0 mi Calm Calm - N/A   Clear
8:15 AM 32.0 °F - 32.0 °F 100% 30.14 in 5.0 mi Calm Calm - N/A   Clear
8:35 AM 32.0 °F - 32.0 °F 100% 30.13 in 5.0 mi Calm Calm - N/A   Clear
8:55 AM 32.0 °F - 32.0 °F 100% 30.14 in 5.0 mi Calm Calm - N/A   Clear
9:15 AM 32.0 °F - 32.0 °F 100% 30.13 in 5.0 mi Calm Calm - N/A   Clear
9:35 AM 33.8 °F - 32.0 °F 93% 30.12 in 5.0 mi Calm Calm - N/A   Clear
9:55 AM 33.8 °F - 32.0 °F 93% 30.12 in 7.0 mi Calm Calm - N/A   Clear
10:15 AM 35.6 °F - 33.8 °F 93% 30.12 in 7.0 mi Calm Calm - N/A   Clear
10:35 AM 37.4 °F - 33.8 °F 87% 30.11 in 7.0 mi Calm Calm - N/A   Clear
10:55 AM 39.2 °F - 35.6 °F 87% 30.10 in 10.0 mi Calm Calm - N/A   Clear
11:15 AM 41.0 °F - 37.4 °F 87% 30.09 in 10.0 mi Calm Calm - N/A   Clear
11:35 AM 44.6 °F - 35.6 °F 71% 30.08 in 10.0 mi Calm Calm - N/A   Clear
11:55 AM 44.6 °F - 35.6 °F 71% 30.06 in 10.0 mi Calm Calm - N/A   Scattered Clouds
12:15 PM 46.4 °F - 35.6 °F 66% 30.05 in 10.0 mi Calm Calm - N/A   Scattered Clouds
12:35 PM 46.4 °F - 35.6 °F 66% 30.04 in 10.0 mi Calm Calm - N/A   Scattered Clouds
12:55 PM 46.4 °F 42.4 °F 35.6 °F 66% 30.04 in 10.0 mi West 8.1 mph - N/A   Mostly Cloudy
1:15 PM 48.2 °F - 35.6 °F 62% 30.03 in 10.0 mi West 8.1 mph - N/A   Scattered Clouds
1:35 PM 48.2 °F - 33.8 °F 58% 30.00 in 10.0 mi Calm Calm - N/A   Mostly Cloudy
1:55 PM 48.2 °F - 35.6 °F 62% 30.02 in 10.0 mi West 9.2 mph - N/A   Overcast
2:15 PM 48.2 °F - 35.6 °F 62% 30.01 in 10.0 mi WSW 6.9 mph - N/A   Scattered Clouds
2:35 PM 50.0 °F - 33.8 °F 54% 29.99 in 10.0 mi West 3.5 mph - N/A   Scattered Clouds
2:55 PM 50.0 °F - 35.6 °F 58% 30.00 in 10.0 mi West 10.4 mph - N/A   Mostly Cloudy
3:15 PM 50.0 °F - 35.6 °F 58% 29.99 in 10.0 mi West 9.2 mph - N/A   Mostly Cloudy
3:35 PM 50.0 °F - 33.8 °F 54% 29.98 in 10.0 mi West 6.9 mph - N/A   Mostly Cloudy
3:55 PM 50.0 °F - 33.8 °F 54% 29.97 in 10.0 mi WNW 4.6 mph - N/A   Overcast
4:15 PM 50.0 °F - 32.0 °F 50% 29.96 in 10.0 mi West 4.6 mph - N/A   Overcast
4:35 PM 50.0 °F - 32.0 °F 50% 29.96 in 10.0 mi WSW 6.9 mph - N/A   Overcast
4:55 PM 50.0 °F - 32.0 °F 50% 29.96 in 10.0 mi WSW 4.6 mph - N/A   Overcast
5:15 PM 50.0 °F - 33.8 °F 54% 29.97 in 10.0 mi WSW 5.8 mph - N/A   Overcast
5:35 PM 50.0 °F - 32.0 °F 50% 29.97 in 10.0 mi SW 3.5 mph - N/A   Overcast
5:55 PM 48.2 °F - 32.0 °F 54% 29.96 in 10.0 mi SW 3.5 mph - N/A   Mostly Cloudy
6:15 PM 48.2 °F - 33.8 °F 58% 29.96 in 10.0 mi WSW 5.8 mph - N/A   Mostly Cloudy
6:35 PM 46.4 °F 43.5 °F 33.8 °F 62% 29.96 in 10.0 mi WSW 5.8 mph - N/A   Overcast
6:55 PM 46.4 °F 44.3 °F 32.0 °F 57% 29.97 in 10.0 mi SW 4.6 mph - N/A   Overcast
7:15 PM 46.4 °F 42.9 °F 32.0 °F 57% 29.96 in 10.0 mi SW 6.9 mph - N/A   Overcast
7:35 PM 46.4 °F 43.5 °F 32.0 °F 57% 29.96 in 10.0 mi SW 5.8 mph - N/A   Overcast
7:55 PM 46.4 °F - 32.0 °F 57% 29.96 in 10.0 mi Calm Calm - N/A   Overcast
8:15 PM 46.4 °F 43.5 °F 32.0 °F 57% 29.96 in 10.0 mi SSW 5.8 mph - N/A   Overcast
8:35 PM 44.6 °F 42.2 °F 32.0 °F 61% 29.95 in 10.0 mi SW 4.6 mph - N/A   Overcast
8:55 PM 44.6 °F 42.2 °F 33.8 °F 66% 29.96 in 10.0 mi SW 4.6 mph - N/A   Overcast
9:15 PM 44.6 °F 40.7 °F 33.8 °F 66% 29.96 in 10.0 mi SW 6.9 mph - N/A   Overcast
9:35 PM 44.6 °F 41.4 °F 33.8 °F 66% 29.95 in 10.0 mi WSW 5.8 mph - N/A   Overcast
9:55 PM 44.6 °F 43.1 °F 35.6 °F 71% 29.95 in 10.0 mi WSW 3.5 mph - N/A   Overcast
10:15 PM 44.6 °F - 33.8 °F 66% 29.96 in 10.0 mi Calm Calm - N/A   Overcast
10:35 PM 44.6 °F 43.1 °F 33.8 °F 66% 29.95 in 10.0 mi SSW 3.5 mph - N/A   Overcast
10:55 PM 44.6 °F - 33.8 °F 66% 29.94 in 10.0 mi Calm Calm - N/A   Overcast
11:15 PM 42.8 °F - 35.6 °F 76% 29.94 in 10.0 mi Calm Calm - N/A   Overcast
11:35 PM 42.8 °F - 35.6 °F 76% 29.93 in 10.0 mi Calm Calm - N/A   Overcast
11:55 PM 42.8 °F - 35.6 °F 76% 29.93 in 10.0 mi Calm Calm - N/A   Overcast